[Date Prev][Date Next][Thread Prev][Thread Next] - [Date Index][Thread Index][Author Index]

2 Line ISS Keps 12-5



ISS
1 25544U 98067A   05338.85691387  .00016094  00000-0  12086-3 0  8805
2 25544 051.6431 106.2008 0009200 004.2357 134.2946 15.72727743402540
----
Via the sarex mailing list at AMSAT.ORG courtesy of AMSAT-NA.
To unsubscribe, send "unsubscribe sarex" to Majordomo@amsat.org



AMSAT Top AMSAT Home